Temperature
19 19 19 19 19 19 19 19 19 19 19 19 19 19 19 19 19 19 19 18 18 18 18 18 18 18 18 18 18 18 18 18 18 18 17 17 17 17 17 17 17 17 17
19 19 19 19 19 19 19 19 19 19 19 19 19 19 19 19 19 19 19 18 18 18 18 18 18 18 18 18 18 18 18 18 17 17 17 17 17 17 17 17 17 17 17
20 19 19 19 19 19 19 19 19 19 19 19 19 19 18 18 19 18 18 18 18 18 18 18 18 18 18 18 18 18 18 17 17 17 17 17 17 17 17 17 17 17 17
20 20 20 19 19 19 19 19 19 19 19 19 19 18 18 18 18 18 18 18 18 18 18 18 18 18 18 18 18 18 17 17 17 17 17 17 17 17 17 17 17 17 17
20 20 20 20 19 19 19 19 19 19 19 19 18 18 18 18 18 18 18 18 18 18 18 18 18 18 18 18 17 17 17 17 17 17 17 17 17 17 17 17 17 17 17
20 20 20 20 19 19 19 19 19 19 18 18 18 18 18 18 18 18 18 18 18 18 18 18 18 18 18 17 17 17 17 17 17 17 17 17 17 17 17 17 17 17 17
20 20 20 20 19 19 19 19 19 19 18 18 18 18 18 18 18 18 18 18 18 18 18 18 18 18 17 17 17 17 17 17 17 17 17 17 17 17 17 17 17 17 17
21 20 20 20 20 19 19 19 19 19 19 18 18 18 18 18 18 18 18 18 18 18 18 18 18 18 17 17 17 17 17 17 17 17 17 17 17 17 17 17 17 17 17
20 20 20 20 20 19 19 19 19 19 19 18 18 18 18 18 18 18 18 18 18 18 18 18 18 18 17 17 17 17 17 17 17 17 17 17 17 17 17 17 17 17 17
20 20 20 20 19 19 19 19 19 19 18 18 18 18 18 18 18 18 18 18 18 18 18 18 18 18 17 17 17 17 17 17 17 17 17 17 17 17 17 17 17 17 17
20 20 20 20 19 19 19 19 19 19 19 18 18 18 18 18 18 18 18 18 18 18 18 18 18 18 17 17 17 17 17 17 17 17 17 17 17 17 17 17 17 17 17
20 20 20 20 19 19 19 19 19 19 18 18 18 18 18 18 18 18 18 18 18 18 18 18 18 17 17 17 17 17 17 17 17 18 17 17 17 17 17 17 17 17 17
20 20 20 19 19 19 19 19 19 19 18 18 18 18 18 18 18 18 18 18 18 18 18 18 18 18 17 17 17 17 17 17 17 17 17 17 17 17 17 17 17 17 17
21 20 20 19 19 19 19 19 19 19 18 18 18 18 18 18 18 18 18 18 18 18 18 18 18 18 18 18 17 17 17 17 17 17 17 17 17 18 18 17 17 17 17
21 21 20 20 19 19 19 19 19 19 18 18 18 18 18 18 18 18 18 18 18 18 18 18 18 18 18 18 18 17 17 17 17 18 18 17 17 18 18 17 17 17 17
21 21 20 20 20 19 19 19 19 19 19 19 18 18 18 18 18 18 18 18 18 18 18 18 18 18 18 18 18 17 17 17 17 18 18 18 17 18 18 18 18 18 17
21 21 20 20 20 19 19 19 19 19 19 19 19 18 18 18 18 18 18 18 18 18 18 18 18 18 18 17 18 17 17 17 17 18 18 17 18 18 18 18 18 18 17
22 21 21 20 20 20 20 19 19 19 19 19 19 18 18 18 18 18 18 18 18 18 18 18 18 18 18 18 18 18 18 17 17 18 18 18 18 18 17 18 17 17 17
22 21 21 20 20 20 20 19 19 19 19 19 19 19 19 18 18 18 18 18 18 18 18 18 18 18 18 18 18 18 18 18 18 18 18 18 18 18 18 18 17 17 17
22 22 21 21 20 20 20 19 19 19 19 19 19 19 19 19 18 18 18 18 18 18 18 18 18 18 18 18 18 18 18 18 18 18 18 18 18 18 18 18 17 17 17
22 22 21 21 21 20 20 20 19 19 19 19 19 19 19 19 18 18 18 18 18 18 18 18 18 18 18 18 17 18 18 18 18 18 18 18 18 18 18 18 17 17 17
22 22 21 21 21 20 20 20 20 19 19 19 19 19 18 18 18 18 18 18 18 18 18 18 18 18 18 18 17 17 18 18 18 18 18 18 18 18 18 18 17 17 17
22 22 22 21 21 21 20 20 19 19 19 19 19 19 19 18 18 18 18 18 18 18 18 18 18 18 18 18 18 17 17 18 18 18 18 18 18 18 18 18 18 18 17
23 22 22 22 21 21 20 20 20 20 20 19 19 19 19 19 18 18 18 18 18 18 18 18 18 18 18 18 18 17 17 17 17 18 18 18 18 18 18 18 18 18 18
23 23 22 22 21 21 20 20 20 20 20 19 19 19 19 19 18 18 18 18 18 18 18 18 18 18 18 18 18 17 17 17 17 17 17 18 18 18 18 18 18 18 18
23 23 22 22 22 21 21 20 20 20 20 19 19 19 19 19 19 18 18 18 18 18 18 18 18 18 18 18 17 17 17 17 17 17 17 17 17 18 18 18 17 18 17
Wind_Speed
3 6 12 14 14 14 14 15 15 16 17 18 18 19 19 19 18 18 18 17 17 16 16 16 16 16 16 16 17 18 18 19 19 18 18 17 17 17 17 17 16 15 17
7 10 13 15 14 15 15 15 15 15 16 17 17 17 17 17 17 16 16 16 15 15 15 15 15 15 15 16 17 17 18 18 18 17 17 16 16 16 16 16 15 14 16
10 12 14 15 15 15 15 15 15 15 15 16 16 16 16 15 15 15 15 15 14 14 14 14 14 14 14 15 16 16 16 16 16 16 15 14 14 15 16 15 15 15 15
12 12 14 15 15 15 15 14 14 14 14 15 15 15 14 14 14 14 14 14 13 13 13 13 13 13 14 14 15 14 14 14 15 15 13 12 12 14 15 15 14 14 14
11 13 15 16 15 15 15 14 14 14 14 14 14 14 13 13 13 13 13 13 12 12 12 12 12 13 13 13 13 12 12 12 12 11 11 12 12 14 14 14 14 14 13
10 13 15 16 16 15 14 14 14 14 14 13 13 13 12 12 12 12 12 12 11 11 11 11 12 12 12 11 10 10 10 10 10 10 12 12 12 13 13 13 13 13 12
10 12 15 16 16 15 14 14 13 13 13 13 13 12 12 12 12 11 11 11 11 11 11 11 11 11 11 9 9 8 8 8 8 10 11 12 12 13 12 12 12 12 12
12 12 15 16 15 15 14 13 13 12 12 12 12 12 11 11 11 11 10 10 10 10 10 11 10 9 9 8 7 6 8 7 7 9 10 12 13 13 13 12 12 12 12
12 12 12 14 15 15 14 13 12 12 11 11 11 11 11 10 10 10 10 10 10 10 10 10 9 8 7 6 5 5 6 6 8 10 11 12 13 13 13 12 12 11 12
10 9 10 11 12 12 13 13 12 12 11 11 11 11 10 10 9 9 9 9 10 10 9 9 8 7 6 5 4 4 5 7 9 10 10 12 14 13 13 12 12 11 11
10 8 8 9 10 11 11 11 12 11 11 10 10 10 9 8 8 8 8 9 9 9 8 8 7 6 5 3 3 3 4 5 7 9 11 13 14 13 13 12 12 12 11
11 10 9 9 10 11 10 10 9 9 9 9 8 8 8 7 7 8 9 9 8 8 7 7 6 5 4 2 2 2 3 5 6 9 11 15 15 14 13 13 12 12 12
13 12 10 9 10 10 7 9 8 7 8 8 9 9 8 7 6 7 7 7 7 7 5 5 5 4 4 3 3 3 4 5 7 9 11 16 16 15 14 13 13 13 12
12 12 10 9 9 9 9 8 8 6 6 7 9 11 8 5 5 6 6 6 6 6 5 4 4 5 5 5 5 5 5 6 8 10 12 17 17 16 15 14 14 13 13
11 11 11 10 9 8 7 6 7 7 7 9 9 11 11 7 5 5 5 7 7 7 6 5 5 4 4 5 5 5 5 8 9 10 12 17 17 16 15 15 14 14 14
11 11 10 10 8 8 6 5 5 7 8 8 9 11 13 10 7 6 4 5 6 8 8 6 5 3 3 3 3 5 6 8 10 11 12 15 17 16 16 16 16 15 15
11 10 10 9 8 7 7 5 5 6 8 6 8 11 12 11 10 7 5 4 6 8 8 5 4 3 3 3 3 4 5 6 9 11 12 13 15 16 17 17 17 17 16
11 11 10 9 8 7 6 4 4 5 6 6 8 10 11 12 11 8 4 4 6 6 5 3 3 3 3 3 3 3 3 5 8 10 12 13 14 14 17 18 18 18 18
12 11 9 8 8 7 6 4 4 4 4 6 7 8 10 12 12 9 5 5 6 4 3 4 3 3 3 3 3 4 3 4 5 8 9 13 15 15 15 17 19 19 19
11 10 9 8 8 7 5 3 2 2 3 4 6 8 10 10 12 9 5 6 6 4 3 3 3 3 3 3 3 3 4 4 4 5 8 10 13 15 15 15 16 17 21
10 10 9 8 7 6 4 3 3 3 3 3 4 8 10 9 10 8 4 4 4 4 5 5 3 3 3 2 1 2 3 3 4 5 5 5 8 13 14 15 15 15 15
12 11 10 9 9 7 5 4 3 3 3 3 3 5 8 8 9 8 5 5 4 4 4 4 4 2 3 3 3 1 2 4 3 4 4 6 6 7 9 14 15 15 15
12 12 11 10 9 8 7 4 2 1 0 0 2 2 4 7 7 7 7 5 5 5 5 5 5 5 4 3 3 4 3 4 3 3 4 4 4 4 6 8 13 15 16
14 12 10 10 9 8 7 6 6 5 4 4 3 3 3 5 6 7 7 7 5 4 5 5 5 4 4 4 3 3 4 4 3 3 3 3 4 5 6 6 8 12 15
13 12 10 10 9 8 7 8 7 5 4 3 2 3 3 3 4 5 6 5 5 5 5 5 4 4 4 4 4 3 3 3 4 3 4 4 3 4 5 5 5 7 12
11 11 11 11 10 9 9 8 7 7 5 4 4 4 3 2 2 3 4 4 4 4 5 5 5 5 5 5 4 4 4 3 4 4 5 5 4 4 3 4 4 6 9
Wind_Direction
154 141 122 114 110 106 104 103 102 101 99 100 100 101 103 105 107 109 111 113 113 113 112 112 112 113 115 116 118 118 118 119 118 117 116 115 116 117 115 113 111 111 113
151 141 125 119 115 111 109 107 106 105 104 103 103 104 106 107 109 111 113 115 116 116 115 114 114 116 117 118 119 118 119 120 120 119 116 114 115 117 119 117 116 118 117
139 136 128 123 119 115 113 111 110 109 109 108 106 107 108 109 111 112 114 115 118 119 118 118 119 120 121 121 121 121 122 122 122 119 112 109 114 118 120 122 121 121 119
138 135 131 127 123 119 116 116 116 115 115 113 112 113 113 113 114 115 115 116 119 121 122 123 124 125 125 124 124 126 127 126 125 121 117 117 118 120 121 123 124 123 122
132 133 134 131 128 124 121 121 120 119 118 117 117 118 118 118 117 117 118 120 123 125 128 130 131 131 129 127 128 130 133 131 125 122 124 123 123 126 126 128 128 126 125
132 135 138 134 131 128 125 124 124 123 122 121 121 121 122 123 121 121 122 125 127 128 131 134 137 136 134 134 134 132 134 131 122 124 127 130 132 133 133 134 132 131 130
138 138 139 137 134 133 131 130 129 127 126 126 124 124 124 125 124 125 125 128 130 132 134 136 140 142 141 141 143 140 140 136 131 135 137 140 142 141 138 137 137 137 136
140 140 142 141 139 137 135 135 134 132 131 130 129 129 129 130 129 129 130 131 134 136 138 139 143 147 147 146 145 141 143 140 140 147 147 148 148 145 143 141 141 143 141
144 144 144 145 144 143 142 141 140 138 137 137 137 136 136 136 135 135 136 136 137 138 140 143 148 151 153 154 149 144 148 138 136 144 150 152 153 153 152 152 150 149 148
148 151 150 149 149 148 147 147 146 147 146 146 147 145 145 144 144 144 143 145 145 144 147 149 154 157 162 168 161 152 145 130 138 148 153 160 161 161 161 161 159 158 157
158 162 159 158 157 156 155 157 157 156 156 155 155 153 150 147 148 153 155 155 155 155 156 157 160 168 176 183 181 165 149 138 147 159 163 168 168 168 167 167 167 168 168
170 175 171 167 169 169 167 162 166 165 166 167 169 165 161 163 166 167 169 166 164 165 165 165 172 180 190 205 212 198 177 158 156 167 174 175 174 174 173 173 173 173 174
171 173 173 171 171 174 168 165 177 180 179 185 188 184 175 174 180 180 175 176 178 176 173 175 179 190 204 223 234 225 199 177 171 180 184 181 180 179 179 180 180 180 180
165 171 171 171 170 173 168 175 181 186 188 196 198 190 178 172 176 181 179 182 187 185 184 195 200 208 221 232 234 227 212 190 185 184 187 186 185 186 185 185 185 187 187
156 162 165 165 163 166 166 180 180 192 195 196 189 188 181 174 176 178 186 193 197 195 194 201 207 211 221 233 234 220 202 192 188 186 191 191 191 191 192 191 192 194 195
157 158 159 158 159 156 164 169 168 182 193 192 189 187 182 178 177 175 181 190 200 202 204 201 205 209 220 227 233 223 203 188 193 193 193 195 197 197 198 198 199 201 203
160 160 161 161 158 158 162 166 161 169 179 185 192 189 183 179 177 175 177 188 200 200 198 197 205 215 219 225 238 229 210 196 193 197 197 198 202 205 206 207 208 209 210
158 161 168 166 162 167 171 171 161 166 171 184 187 186 185 181 181 178 178 192 198 191 184 179 189 203 225 225 236 241 220 205 201 202 201 202 203 207 213 215 216 216 217
164 163 167 164 166 173 175 175 171 170 178 188 185 183 186 186 185 182 185 193 190 178 185 197 188 193 210 224 237 242 238 223 210 209 203 206 207 210 212 218 220 222 223
165 164 163 166 172 171 170 166 169 163 185 187 187 192 190 190 189 186 191 194 182 172 192 195 194 201 205 213 245 251 248 234 221 215 214 211 211 215 215 216 220 225 227
165 166 165 166 177 168 166 174 176 196 203 202 204 201 196 195 190 185 187 183 179 183 199 199 188 197 212 179 149 305 302 272 244 235 222 213 215 216 213 214 217 221 227
174 175 173 173 178 180 182 181 179 180 201 204 210 201 199 197 193 189 183 186 185 188 199 201 190 182 211 180 166 165 311 322 292 248 233 224 224 213 212 216 216 218 221
181 182 183 181 181 186 181 167 161 136 87 201 212 205 204 194 193 193 191 189 191 190 202 207 195 189 210 220 186 166 180 239 287 294 248 230 217 212 221 219 217 217 218
188 184 181 179 179 183 176 173 178 186 197 213 205 204 209 199 198 202 200 196 192 192 202 215 200 192 192 218 229 215 200 183 199 292 306 268 238 225 224 229 225 219 217
184 181 181 176 180 184 182 180 183 193 199 203 196 195 206 209 209 211 204 196 196 199 205 212 203 203 201 206 211 214 221 218 200 207 272 292 291 256 237 228 227 223 222
179 179 178 178 185 184 184 184 187 192 191 187 197 200 210 216 227 227 207 200 201 203 208 212 211 215 218 217 213 205 202 208 209 205 236 255 262 267 254 241 232 226 227
Height
1541 1541 1542 1542 1542 1543 1543 1543 1544 1544 1545 1545 1546 1547 1548 1549 1549 1550 1551 1552 1553 1554 1554 1555 1556 1557 1558 1558 1559 1560 1561 1562 1563 1563 1564 1565 1565 1566 1566 1567 1568 1568 1569
1541 1542 1543 1543 1543 1544 1544 1545 1545 1546 1546 1547 1548 1549 1549 1550 1551 1552 1552 1553 1554 1555 1556 1557 1558 1558 1559 1560 1561 1562 1562 1563 1564 1565 1566 1567 1567 1568 1568 1569 1569 1570 1570
1541 1543 1544 1544 1545 1545 1546 1546 1547 1547 1548 1548 1549 1550 1551 1552 1553 1553 1554 1555 1555 1556 1557 1558 1559 1560 1561 1561 1562 1563 1564 1565 1566 1566 1567 1568 1569 1569 1570 1570 1571 1571 1572
1543 1544 1545 1546 1546 1547 1547 1548 1548 1549 1549 1550 1550 1551 1552 1553 1554 1554 1555 1556 1556 1557 1558 1559 1560 1561 1562 1563 1564 1565 1565 1566 1567 1568 1569 1570 1570 1571 1571 1572 1572 1573 1573
1544 1545 1546 1547 1547 1548 1548 1549 1549 1550 1550 1551 1552 1553 1553 1554 1555 1555 1556 1556 1557 1558 1559 1560 1561 1562 1563 1564 1565 1566 1567 1567 1568 1569 1570 1571 1571 1572 1573 1573 1574 1575 1575
1545 1546 1547 1548 1548 1549 1549 1550 1551 1551 1552 1552 1553 1554 1554 1555 1555 1556 1557 1557 1558 1559 1560 1561 1562 1563 1564 1565 1566 1567 1568 1569 1569 1570 1571 1572 1573 1573 1574 1574 1575 1576 1576
1546 1547 1548 1549 1549 1550 1550 1551 1552 1552 1553 1553 1554 1555 1555 1556 1556 1557 1557 1558 1559 1560 1560 1561 1562 1564 1565 1566 1567 1568 1569 1570 1571 1572 1572 1573 1574 1574 1575 1576 1576 1577 1577
1547 1548 1549 1550 1550 1551 1551 1552 1553 1553 1554 1554 1555 1556 1556 1557 1557 1558 1558 1559 1560 1561 1561 1562 1563 1565 1566 1567 1569 1569 1570 1571 1572 1572 1573 1574 1575 1575 1576 1576 1577 1578 1578
1549 1549 1550 1551 1551 1552 1552 1553 1554 1554 1555 1555 1556 1557 1557 1558 1558 1559 1559 1560 1561 1562 1562 1563 1565 1566 1567 1568 1569 1570 1571 1572 1572 1573 1574 1575 1576 1576 1577 1577 1578 1578 1579
1550 1551 1551 1552 1552 1553 1553 1554 1555 1555 1556 1557 1557 1558 1559 1559 1559 1560 1561 1561 1562 1563 1563 1564 1566 1567 1568 1569 1570 1571 1572 1573 1573 1574 1575 1576 1577 1577 1577 1578 1578 1579 1579
1551 1551 1552 1552 1553 1554 1554 1555 1556 1556 1557 1558 1558 1559 1560 1560 1561 1561 1562 1562 1563 1564 1564 1565 1566 1568 1569 1570 1571 1572 1572 1573 1574 1575 1576 1577 1577 1577 1578 1578 1578 1579 1579
1550 1551 1552 1553 1554 1555 1555 1556 1557 1557 1558 1559 1559 1560 1561 1561 1562 1562 1563 1564 1564 1565 1565 1566 1567 1569 1570 1571 1571 1572 1573 1574 1575 1576 1576 1577 1577 1577 1578 1578 1578 1579 1579
1550 1551 1552 1553 1554 1555 1556 1557 1557 1558 1559 1560 1560 1561 1561 1562 1563 1563 1564 1564 1565 1566 1566 1567 1568 1569 1570 1571 1572 1573 1573 1574 1575 1576 1576 1577 1577 1577 1577 1578 1578 1579 1579
1549 1550 1552 1553 1554 1555 1556 1557 1558 1558 1559 1560 1561 1561 1562 1562 1563 1564 1565 1565 1566 1566 1567 1568 1569 1570 1570 1571 1572 1573 1573 1574 1575 1576 1576 1576 1576 1577 1577 1577 1578 1578 1579
1548 1550 1551 1552 1553 1555 1556 1557 1558 1558 1559 1560 1561 1561 1562 1563 1563 1564 1565 1566 1566 1567 1567 1568 1569 1570 1571 1571 1572 1573 1573 1574 1575 1575 1575 1576 1576 1576 1576 1577 1577 1578 1578
1548 1549 1551 1552 1553 1554 1555 1556 1557 1558 1559 1560 1560 1561 1562 1563 1563 1564 1565 1566 1566 1567 1568 1569 1569 1570 1571 1571 1572 1572 1573 1573 1574 1574 1575 1575 1575 1575 1576 1576 1576 1577 1578
1548 1549 1550 1552 1553 1554 1555 1556 1557 1558 1559 1559 1560 1561 1562 1562 1563 1564 1564 1565 1566 1567 1567 1568 1569 1569 1570 1571 1571 1572 1572 1572 1573 1573 1574 1574 1574 1574 1574 1575 1575 1576 1576
1547 1548 1549 1551 1552 1553 1554 1555 1556 1557 1558 1559 1559 1560 1561 1562 1562 1563 1564 1565 1565 1566 1567 1567 1568 1568 1569 1570 1570 1571 1571 1571 1571 1572 1572 1572 1572 1573 1573 1573 1574 1574 1574
1545 1547 1548 1549 1550 1551 1552 1554 1555 1556 1556 1557 1558 1559 1560 1561 1562 1562 1563 1564 1564 1565 1566 1566 1567 1567 1568 1568 1569 1569 1569 1569 1569 1570 1570 1570 1570 1571 1571 1571 1571 1572 1572
1545 1546 1547 1548 1549 1550 1551 1552 1553 1554 1555 1556 1557 1558 1559 1560 1560 1561 1562 1563 1563 1564 1564 1565 1565 1566 1566 1567 1567 1567 1567 1567 1567 1567 1567 1567 1568 1568 1569 1569 1569 1569 1570
1543 1544 1545 1546 1547 1548 1549 1550 1551 1552 1553 1554 1555 1556 1557 1558 1559 1560 1560 1561 1562 1562 1563 1563 1564 1564 1564 1565 1565 1565 1565 1565 1565 1564 1565 1564 1565 1565 1565 1566 1566 1566 1567
1540 1542 1543 1544 1546 1547 1548 1549 1550 1551 1551 1552 1553 1554 1555 1556 1557 1558 1558 1559 1559 1560 1561 1561 1561 1562 1562 1562 1563 1563 1563 1563 1561 1561 1561 1561 1561 1562 1562 1562 1562 1563 1563
1538 1540 1541 1542 1544 1545 1546 1547 1549 1550 1550 1551 1551 1551 1553 1554 1555 1556 1557 1557 1557 1558 1558 1559 1559 1559 1559 1560 1560 1561 1561 1559 1559 1558 1558 1558 1558 1558 1558 1559 1559 1559 1560
1536 1538 1540 1541 1542 1543 1545 1546 1546 1547 1548 1549 1550 1550 1551 1552 1553 1554 1554 1555 1555 1556 1556 1556 1556 1556 1557 1557 1557 1558 1558 1558 1557 1555 1555 1555 1555 1555 1555 1555 1555 1555 1555
1534 1536 1538 1539 1540 1542 1543 1544 1545 1546 1547 1548 1549 1549 1549 1550 1551 1551 1552 1552 1553 1553 1553 1553 1553 1554 1553 1553 1554 1554 1554 1554 1554 1554 1552 1551 1551 1551 1551 1551 1551 1551 1551
1532 1534 1535 1537 1538 1540 1541 1542 1543 1544 1546 1546 1547 1547 1548 1548 1549 1549 1549 1550 1550 1550 1550 1550 1550 1551 1551 1551 1551 1551 1551 1551 1550 1550 1549 1547 1547 1547 1547 1547 1547 1547 1547